Tracking 18796 objects as of 20-September-2017
HD Live streaming from Space Station
objects crossing your sky now

BEIDOU-3 M1

Track BEIDOU-3 M1 now!
BEIDOU-3 M1 is classified as:


NORAD ID: 40748
Int'l Code: 2015-037A
Perigee: 21,521.2 km
Apogee: 21,549.1 km
Inclination: 55.5 °
Period: 773.2 minutes
Semi major axis: 27906 km
RCS: Unknown
Launch date: July 25, 2015
Source: People's Republic of China (PRC)
Launch site: Xichang Space Center, China (XSC)
aabbcc
Your satellite tracking list
Your tracking list is empty





NASA's NSSDC Master Catalog

Two Line Element Set (TLE):
1 40748U 15037A   17262.62133927 -.00000068 +00000-0 +00000-0 0  9995
2 40748 055.5099 050.3122 0004995 249.0597 184.9649 01.86231424014663
Source of the keplerian elements: AFSPC